GW3020 Weather Reports


Display with metric or nautical units.
time (UTC)temp
F
wind
direction
speed
MPH
gust
MPH
rain 1hr
in
rain 24hr
in
rain mn
in
humidity
%
barometer
mb
20260504110704 44 250 1.0 1.0 0.00 0.00 0.00 66 1015.4
20260504110200 44 255 1.0 2.0 0.00 0.00 0.00 66 1015.4
20260504100119 44 233 1.0 2.0 0.00 0.00 0.00 66 1015.4
20260504081512 46 256 1.0 1.0 0.00 0.00 0.00 62 1015.3
20260504081008 45 249 0.0 1.0 0.00 0.00 0.00 63 1015.4
20260504080504 45 249 1.0 1.0 0.00 0.00 0.00 64 1015.2
20260504050317 46 254 0.0 1.0 0.00 0.00 0.00 57 1016.0
20260504045814 46 263 2.0 3.0 0.00 0.00 0.00 56 1016.1
20260504045309 46 246 0.0 1.0 0.00 0.00 0.00 57 1015.7
20260504044806 46 254 0.0 1.0 0.00 0.00 0.00 56 1015.8
20260504044304 46 258 1.0 1.0 0.00 0.00 0.00 57 1015.7
20260504043801 46 250 1.0 1.0 0.00 0.00 0.00 58 1015.9
20260504043258 46 249 0.0 1.0 0.00 0.00 0.00 58 1015.9
20260504042755 46 250 0.0 1.0 0.00 0.00 0.00 58 1015.7
20260504042251 46 250 0.0 1.0 0.00 0.00 0.00 57 1016.0
20260504041748 47 254 0.0 1.0 0.00 0.00 0.00 55 1015.9
20260504041244 47 256 1.0 1.0 0.00 0.00 0.00 55 1015.8
20260504040740 46 256 1.0 2.0 0.00 0.00 0.00 57 1015.8
20260504040238 46 256 1.0 1.0 0.00 0.00 0.00 58 1015.9
20260504035734 45 255 1.0 1.0 0.00 0.00 0.00 59 1015.6
20260504035231 44 242 1.0 1.0 0.00 0.00 0.00 62 1015.8
20260504034729 44 222 0.0 0.0 0.00 0.00 0.00 63 1015.6
20260504034226 44 222 0.0 0.0 0.00 0.00 0.00 64 1015.7
20260504033723 44 222 0.0 0.0 0.00 0.00 0.00 64 1015.8
20260504033221 44 222 0.0 0.0 0.00 0.00 0.00 64 1015.7
20260504032717 44 222 0.0 0.0 0.00 0.00 0.00 63 1015.7
20260504032214 44 222 0.0 0.0 0.00 0.00 0.00 63 1015.8
20260504031710 44 222 0.0 0.0 0.00 0.00 0.00 63 1015.9
20260504031208 44 222 0.0 1.0 0.00 0.00 0.00 64 1016.0
20260504030658 44 245 0.0 0.0 0.00 0.00 0.00 65 1015.9
20260504030156 44 245 0.0 0.0 0.00 0.00 0.00 63 1016.1
20260504025652 44 246 0.0 0.0 0.00 0.00 0.00 62 1015.9
20260504025149 44 246 0.0 0.0 0.00 0.00 0.00 61 1016.0
20260504024646 44 246 0.0 0.0 0.00 0.00 0.00 62 1015.6
20260504024142 44 246 0.0 0.0 0.00 0.00 0.00 62 1015.9
20260504023639 44 242 0.0 1.0 0.00 0.00 0.00 62 1015.7
20260504023135 44 239 0.0 0.0 0.00 0.00 0.00 59 1015.6
20260504022632 44 239 0.0 0.0 0.00 0.00 0.00 60 1015.8
20260504022127 45 239 0.0 0.0 0.00 0.00 0.00 58 1015.9
20260504021626 45 239 0.0 0.0 0.00 0.00 0.00 57 1015.7
20260504021122 46 239 0.0 0.0 0.00 0.00 0.00 57 1015.8
20260504020620 46 239 0.0 0.0 0.00 0.00 0.00 56 1015.8
20260504020115 46 239 0.0 1.0 0.00 0.00 0.00 55 1015.8
20260504015612 47 241 0.0 0.0 0.00 0.00 0.00 51 1015.8
20260504015108 47 241 0.0 1.0 0.00 0.00 0.00 53 1015.8
20260504014604 47 232 0.0 0.0 0.00 0.00 0.00 52 1015.6
20260504014102 48 233 0.0 0.0 0.00 0.00 0.00 51 1015.4
20260504013559 48 232 0.0 0.0 0.00 0.00 0.00 51 1015.3
20260504013056 49 232 0.0 0.0 0.00 0.00 0.00 50 1015.1
20260504012553 50 240 0.0 0.0 0.00 0.00 0.00 47 1015.2
20260504012051 50 247 0.0 0.0 0.00 0.00 0.00 45 1015.6
20260504011547 50 249 0.0 1.0 0.00 0.00 0.00 44 1015.4
20260504011044 51 248 0.0 1.0 0.00 0.00 0.00 44 1015.1
20260504010539 51 249 1.0 1.0 0.00 0.00 0.00 44 1015.4
20260504010036 51 249 0.0 1.0 0.00 0.00 0.00 43 1015.2
20260504005532 52 247 1.0 1.0 0.00 0.00 0.00 43 1015.1
20260504005030 52 249 1.0 2.0 0.00 0.00 0.00 42 1015.1
20260504004528 52 228 0.0 1.0 0.00 0.00 0.00 41 1014.9
20260504004024 53 251 1.0 2.0 0.00 0.00 0.00 40 1014.9
20260504003520 53 244 2.0 2.0 0.00 0.00 0.00 40 1014.9
20260504003012 53 252 2.0 3.0 0.00 0.00 0.00 40 1014.8
20260504002509 53 251 1.0 4.0 0.00 0.00 0.00 39 1014.7
20260504002006 53 262 1.0 4.0 0.00 0.00 0.00 40 1014.8
20260504001503 54 261 2.0 3.0 0.00 0.00 0.00 40 1014.7
20260504001000 54 253 2.0 3.0 0.00 0.00 0.00 39 1014.9
20260504000457 54 236 2.0 6.0 0.00 0.00 0.00 39 1014.7
20260503235954 54 254 3.0 4.0 0.00 0.00 0.00 38 1014.8
20260503235452 55 251 1.0 2.0 0.00 0.00 0.00 38 1014.8
20260503234949 55 246 2.0 6.0 0.00 0.00 0.00 38 1014.8
20260503234446 55 221 2.0 4.0 0.00 0.00 0.00 37 1014.9
20260503233945 56 260 5.0 9.0 0.00 0.00 0.00 36 1015.0
20260503233440 56 265 4.0 8.0 0.00 0.00 0.00 35 1015.0
20260503232937 57 269 4.0 8.0 0.00 0.00 0.00 35 1014.9
20260503232434 57 228 2.0 6.0 0.00 0.00 0.00 36 1014.9
20260503231932 57 245 3.0 8.0 0.00 0.00 0.00 34 1014.8
20260503231429 58 263 1.0 6.0 0.00 0.00 0.00 33 1014.8
20260503230926 58 259 3.0 4.0 0.00 0.00 0.00 33 1014.9
20260503230422 58 292 4.0 10.0 0.00 0.00 0.00 33 1014.8
20260503225920 59 251 2.0 2.0 0.00 0.00 0.00 33 1014.6
20260503225416 58 150 3.0 4.0 0.00 0.00 0.00 31 1014.8
20260503224912 59 262 5.0 10.0 0.00 0.00 0.00 31 1014.7
20260503224409 59 253 4.0 8.0 0.00 0.00 0.00 31 1014.8
20260503223907 59 209 1.0 4.0 0.00 0.00 0.00 32 1014.7
20260503223405 59 254 3.0 4.0 0.00 0.00 0.00 31 1015.0
20260503222900 59 273 6.0 13.0 0.00 0.00 0.00 31 1014.8
20260503222359 60 257 4.0 4.0 0.00 0.00 0.00 30 1015.0
20260503221856 60 272 3.0 6.0 0.00 0.00 0.00 30 1014.8
20260503221355 60 219 3.0 3.0 0.00 0.00 0.00 31 1014.9
20260503220850 60 246 1.0 4.0 0.00 0.00 0.00 30 1014.8
20260503220347 60 238 3.0 4.0 0.00 0.00 0.00 30 1014.8
20260503215844 60 245 3.0 6.0 0.00 0.00 0.00 30 1014.9
20260503215341 60 142 2.0 3.0 0.00 0.00 0.00 30 1015.0
20260503214838 60 242 3.0 6.0 0.00 0.00 0.00 30 1015.0
20260503214336 60 263 4.0 6.0 0.00 0.00 0.00 30 1015.0
20260503213828 60 283 6.0 9.0 0.00 0.00 0.00 30 1014.9
20260503213325 60 202 4.0 7.0 0.00 0.00 0.00 28 1015.1
20260503212822 59 208 2.0 8.0 0.00 0.00 0.00 31 1014.9
20260503212320 60 293 4.0 8.0 0.00 0.00 0.00 30 1015.0
20260503211817 60 238 4.0 9.0 0.00 0.00 0.00 29 1015.1
20260503211313 60 240 3.0 6.0 0.00 0.00 0.00 29 1015.1
20260503210813 59 265 3.0 10.0 0.00 0.00 0.00 30 1014.9
20260503210311 60 261 8.0 10.0 0.00 0.00 0.00 29 1015.1
20260503205805 60 224 2.0 6.0 0.00 0.00 0.00 30 1014.8
20260503205304 60 302 4.0 9.0 0.00 0.00 0.00 30 1015.1
20260503204753 60 256 3.0 7.0 0.00 0.00 0.00 31 1015.0
20260503204251 59 209 2.0 9.0 0.00 0.00 0.00 30 1015.1
20260503203748 60 251 6.0 10.0 0.00 0.00 0.00 28 1015.1
20260503203246 60 225 3.0 8.0 0.00 0.00 0.00 29 1015.0
20260503202743 60 244 6.0 9.0 0.00 0.00 0.00 28 1015.0
20260503202241 60 260 4.0 6.0 0.00 0.00 0.00 27 1015.2
20260503201738 60 162 2.0 6.0 0.00 0.00 0.00 24 1015.2
20260503201235 60 212 1.0 9.0 0.00 0.00 0.00 26 1015.6
20260503200732 60 278 4.0 7.0 0.00 0.00 0.00 28 1015.4
20260503200228 60 261 3.0 6.0 0.00 0.00 0.00 27 1015.6
20260503195725 59 263 5.0 9.0 0.00 0.00 0.00 28 1015.9
20260503195222 60 180 3.0 9.0 0.00 0.00 0.00 29 1015.7
20260503194720 59 242 1.0 7.0 0.00 0.00 0.00 29 1015.7
20260503194215 59 245 4.0 4.0 0.00 0.00 0.00 27 1015.7
20260503193712 59 268 4.0 7.0 0.00 0.00 0.00 28 1015.9
20260503193208 59 246 4.0 8.0 0.00 0.00 0.00 27 1015.7
20260503192703 59 255 4.0 11.0 0.00 0.00 0.00 27 1016.0
20260503192159 59 265 2.0 9.0 0.00 0.00 0.00 27 1016.2
20260503191655 59 221 3.0 8.0 0.00 0.00 0.00 31 1016.1
20260503191153 58 199 1.0 4.0 0.00 0.00 0.00 30 1016.2
20260503190650 58 240 1.0 11.0 0.00 0.00 0.00 29 1016.3
20260503190146 59 211 3.0 4.0 0.00 0.00 0.00 30 1016.4
20260503185637 59 236 2.0 3.0 0.00 0.00 0.00 30 1016.5
20260503185132 57 225 1.0 4.0 0.00 0.00 0.00 28 1016.4
20260503184628 58 198 4.0 4.0 0.00 0.00 0.00 29 1016.4
20260503184124 57 325 0.0 6.0 0.00 0.00 0.00 33 1016.6
20260503183621 57 295 4.0 9.0 0.00 0.00 0.00 29 1016.5
20260503183118 57 200 1.0 6.0 0.00 0.00 0.00 31 1016.5
20260503182617 57 240 3.0 6.0 0.00 0.00 0.00 32 1016.8
20260503182114 57 262 3.0 9.0 0.00 0.00 0.00 33 1016.8
20260503181605 57 215 3.0 4.0 0.00 0.00 0.00 30 1016.9
20260503181102 57 316 4.0 6.0 0.00 0.00 0.00 29 1016.9
20260503180559 58 277 1.0 6.0 0.00 0.00 0.00 28 1016.8
20260503180056 57 187 1.0 2.0 0.00 0.00 0.00 27 1016.9
20260503175553 57 223 1.0 3.0 0.00 0.00 0.00 29 1016.9
20260503175050 56 251 2.0 6.0 0.00 0.00 0.00 30 1017.2
20260503174547 56 140 3.0 6.0 0.00 0.00 0.00 28 1017.3
20260503174044 55 220 3.0 6.0 0.00 0.00 0.00 33 1017.3
20260503173539 55 181 4.0 4.0 0.00 0.00 0.00 28 1017.3
20260503173036 56 273 3.0 4.0 0.00 0.00 0.00 31 1017.4
20260503172533 55 194 2.0 4.0 0.00 0.00 0.00 28 1017.3
20260503172030 54 169 4.0 6.0 0.00 0.00 0.00 31 1017.3
20260503171526 55 321 3.0 7.0 0.00 0.00 0.00 32 1017.6
20260503171024 55 319 3.0 7.0 0.00 0.00 0.00 32 1017.5
20260503170520 54 192 0.0 2.0 0.00 0.00 0.00 30 1017.8
20260503150906 49 257 2.0 6.0 0.00 0.00 0.00 39 1018.6
20260503150402 48 237 1.0 6.0 0.00 0.00 0.00 42 1018.3
20260503131256 42 255 2.0 3.0 0.00 0.00 0.00 45 1018.6
20260503130754 42 244 2.0 3.0 0.00 0.00 0.00 47 1018.7
20260503130251 42 223 1.0 6.0 0.00 0.00 0.00 47 1018.6
20260503120217 39 256 0.0 2.0 0.00 0.00 0.00 60 1018.1